Location: downtown San Diego
(32.7310°N, 117.1990°W)
Time: 10:11:19
(UTC-07:00)

Cosmos 1892 Rocket - Pass Details

Date: 14 June 2018
Orbit: 607 x 632 km, 82.5° (Epoch: 16 October)

Event Time Altitude Azimuth Distance (km) Brightness Sun altitude
Rises 20:45:00 0° 191° (S) 2,857 6.7 -9.2°
Reaches altitude 10° 20:47:13 10° 194° (SSW) 1,960 5.9 -9.6°
Maximum altitude 20:51:31 68° 276° (W) 665 3.9 -10.3°
Drops below altitude 10° 20:55:55 10° 1° (N) 1,988 6.7 -11.1°
Sets 20:58:10 0° 4° (N) 2,902 7.5 -11.4°
